Index of /20260425/WXO-DD/model_rdps/10km/00/032
Name Last modified Size Description
Parent Directory -
20260425T00Z_MSC_RDPS_AbsoluteVorticity_IsbL-0250_RLatLon0.09_PT032H.grib2 2026-04-25 02:53 619K
20260425T00Z_MSC_RDPS_AbsoluteVorticity_IsbL-0500_RLatLon0.09_PT032H.grib2 2026-04-25 02:53 567K
20260425T00Z_MSC_RDPS_AbsoluteVorticity_IsbL-0700_RLatLon0.09_PT032H.grib2 2026-04-25 02:53 628K
20260425T00Z_MSC_RDPS_AbsoluteVorticity_IsbL-0850_RLatLon0.09_PT032H.grib2 2026-04-25 02:53 785K
20260425T00Z_MSC_RDPS_AirTemp_AGL-120m_RLatLon0.09_PT032H.grib2 2026-04-25 02:53 392K
20260425T00Z_MSC_RDPS_AirTemp_AGL-2m_RLatLon0.09_PT032H.grib2 2026-04-25 02:53 631K
20260425T00Z_MSC_RDPS_AirTemp_AGL-40m_RLatLon0.09_PT032H.grib2 2026-04-25 02:53 390K
20260425T00Z_MSC_RDPS_AirTemp_AGL-80m_RLatLon0.09_PT032H.grib2 2026-04-25 02:53 398K
20260425T00Z_MSC_RDPS_AirTemp_IsbL-0001_RLatLon0.09_PT032H.grib2 2026-04-25 02:53 298K
20260425T00Z_MSC_RDPS_AirTemp_IsbL-0005_RLatLon0.09_PT032H.grib2 2026-04-25 02:53 297K
20260425T00Z_MSC_RDPS_AirTemp_IsbL-0010_RLatLon0.09_PT032H.grib2 2026-04-25 02:53 313K
20260425T00Z_MSC_RDPS_AirTemp_IsbL-0020_RLatLon0.09_PT032H.grib2 2026-04-25 02:53 332K
20260425T00Z_MSC_RDPS_AirTemp_IsbL-0030_RLatLon0.09_PT032H.grib2 2026-04-25 02:53 354K
20260425T00Z_MSC_RDPS_AirTemp_IsbL-0050_RLatLon0.09_PT032H.grib2 2026-04-25 02:53 329K
20260425T00Z_MSC_RDPS_AirTemp_IsbL-0100_RLatLon0.09_PT032H.grib2 2026-04-25 02:53 428K
20260425T00Z_MSC_RDPS_AirTemp_IsbL-0150_RLatLon0.09_PT032H.grib2 2026-04-25 02:53 425K
20260425T00Z_MSC_RDPS_AirTemp_IsbL-0175_RLatLon0.09_PT032H.grib2 2026-04-25 02:53 418K
20260425T00Z_MSC_RDPS_AirTemp_IsbL-0200_RLatLon0.09_PT032H.grib2 2026-04-25 02:53 420K
20260425T00Z_MSC_RDPS_AirTemp_IsbL-0225_RLatLon0.09_PT032H.grib2 2026-04-25 02:53 422K
20260425T00Z_MSC_RDPS_AirTemp_IsbL-0250_RLatLon0.09_PT032H.grib2 2026-04-25 02:53 431K
20260425T00Z_MSC_RDPS_AirTemp_IsbL-0275_RLatLon0.09_PT032H.grib2 2026-04-25 02:53 410K
20260425T00Z_MSC_RDPS_AirTemp_IsbL-0300_RLatLon0.09_PT032H.grib2 2026-04-25 02:53 416K
20260425T00Z_MSC_RDPS_AirTemp_IsbL-0350_RLatLon0.09_PT032H.grib2 2026-04-25 02:53 427K
20260425T00Z_MSC_RDPS_AirTemp_IsbL-0400_RLatLon0.09_PT032H.grib2 2026-04-25 02:53 428K
20260425T00Z_MSC_RDPS_AirTemp_IsbL-0450_RLatLon0.09_PT032H.grib2 2026-04-25 02:53 399K
20260425T00Z_MSC_RDPS_AirTemp_IsbL-0500_RLatLon0.09_PT032H.grib2 2026-04-25 02:53 411K
20260425T00Z_MSC_RDPS_AirTemp_IsbL-0550_RLatLon0.09_PT032H.grib2 2026-04-25 02:53 432K
20260425T00Z_MSC_RDPS_AirTemp_IsbL-0600_RLatLon0.09_PT032H.grib2 2026-04-25 02:53 448K
20260425T00Z_MSC_RDPS_AirTemp_IsbL-0650_RLatLon0.09_PT032H.grib2 2026-04-25 02:53 462K
20260425T00Z_MSC_RDPS_AirTemp_IsbL-0700_RLatLon0.09_PT032H.grib2 2026-04-25 02:53 488K
20260425T00Z_MSC_RDPS_AirTemp_IsbL-0750_RLatLon0.09_PT032H.grib2 2026-04-25 02:53 414K
20260425T00Z_MSC_RDPS_AirTemp_IsbL-0800_RLatLon0.09_PT032H.grib2 2026-04-25 02:53 458K
20260425T00Z_MSC_RDPS_AirTemp_IsbL-0850_RLatLon0.09_PT032H.grib2 2026-04-25 02:53 504K
20260425T00Z_MSC_RDPS_AirTemp_IsbL-0875_RLatLon0.09_PT032H.grib2 2026-04-25 02:53 519K
20260425T00Z_MSC_RDPS_AirTemp_IsbL-0900_RLatLon0.09_PT032H.grib2 2026-04-25 02:53 523K
20260425T00Z_MSC_RDPS_AirTemp_IsbL-0925_RLatLon0.09_PT032H.grib2 2026-04-25 02:53 521K
20260425T00Z_MSC_RDPS_AirTemp_IsbL-0950_RLatLon0.09_PT032H.grib2 2026-04-25 02:53 520K
20260425T00Z_MSC_RDPS_AirTemp_IsbL-0970_RLatLon0.09_PT032H.grib2 2026-04-25 02:53 518K
20260425T00Z_MSC_RDPS_AirTemp_IsbL-0985_RLatLon0.09_PT032H.grib2 2026-04-25 02:53 510K
20260425T00Z_MSC_RDPS_AirTemp_IsbL-1000_RLatLon0.09_PT032H.grib2 2026-04-25 02:53 492K
20260425T00Z_MSC_RDPS_AirTemp_IsbL-1015_RLatLon0.09_PT032H.grib2 2026-04-25 02:53 485K
20260425T00Z_MSC_RDPS_Albedo_Sfc_RLatLon0.09_PT032H.grib2 2026-04-25 02:53 165K
20260425T00Z_MSC_RDPS_CAPE_Sfc_RLatLon0.09_PT032H.grib2 2026-04-25 02:53 1.7M
20260425T00Z_MSC_RDPS_CIN_Sfc_RLatLon0.09_PT032H.grib2 2026-04-25 02:53 1.1M
20260425T00Z_MSC_RDPS_CloudWater_EAtm_RLatLon0.09_PT032H.grib2 2026-04-25 02:53 219K
20260425T00Z_MSC_RDPS_ConvectivePrecip-Accum_Sfc_RLatLon0.09_PT032H.grib2 2026-04-25 02:53 962K
20260425T00Z_MSC_RDPS_DewPointDepression_AGL-2m_RLatLon0.09_PT032H.grib2 2026-04-25 02:53 387K
20260425T00Z_MSC_RDPS_DewPointDepression_IsbL-0001_RLatLon0.09_PT032H.grib2 2026-04-25 02:53 193
20260425T00Z_MSC_RDPS_DewPointDepression_IsbL-0005_RLatLon0.09_PT032H.grib2 2026-04-25 02:53 193
20260425T00Z_MSC_RDPS_DewPointDepression_IsbL-0010_RLatLon0.09_PT032H.grib2 2026-04-25 02:53 193
20260425T00Z_MSC_RDPS_DewPointDepression_IsbL-0020_RLatLon0.09_PT032H.grib2 2026-04-25 02:53 193
20260425T00Z_MSC_RDPS_DewPointDepression_IsbL-0030_RLatLon0.09_PT032H.grib2 2026-04-25 02:53 193
20260425T00Z_MSC_RDPS_DewPointDepression_IsbL-0050_RLatLon0.09_PT032H.grib2 2026-04-25 02:53 93K
20260425T00Z_MSC_RDPS_DewPointDepression_IsbL-0100_RLatLon0.09_PT032H.grib2 2026-04-25 02:53 129K
20260425T00Z_MSC_RDPS_DewPointDepression_IsbL-0150_RLatLon0.09_PT032H.grib2 2026-04-25 02:53 151K
20260425T00Z_MSC_RDPS_DewPointDepression_IsbL-0175_RLatLon0.09_PT032H.grib2 2026-04-25 02:53 189K
20260425T00Z_MSC_RDPS_DewPointDepression_IsbL-0200_RLatLon0.09_PT032H.grib2 2026-04-25 02:53 218K
20260425T00Z_MSC_RDPS_DewPointDepression_IsbL-0225_RLatLon0.09_PT032H.grib2 2026-04-25 02:53 255K
20260425T00Z_MSC_RDPS_DewPointDepression_IsbL-0250_RLatLon0.09_PT032H.grib2 2026-04-25 02:53 299K
20260425T00Z_MSC_RDPS_DewPointDepression_IsbL-0275_RLatLon0.09_PT032H.grib2 2026-04-25 02:53 310K
20260425T00Z_MSC_RDPS_DewPointDepression_IsbL-0300_RLatLon0.09_PT032H.grib2 2026-04-25 02:53 330K
20260425T00Z_MSC_RDPS_DewPointDepression_IsbL-0350_RLatLon0.09_PT032H.grib2 2026-04-25 02:53 339K
20260425T00Z_MSC_RDPS_DewPointDepression_IsbL-0400_RLatLon0.09_PT032H.grib2 2026-04-25 02:53 350K
20260425T00Z_MSC_RDPS_DewPointDepression_IsbL-0450_RLatLon0.09_PT032H.grib2 2026-04-25 02:53 357K
20260425T00Z_MSC_RDPS_DewPointDepression_IsbL-0500_RLatLon0.09_PT032H.grib2 2026-04-25 02:53 366K
20260425T00Z_MSC_RDPS_DewPointDepression_IsbL-0550_RLatLon0.09_PT032H.grib2 2026-04-25 02:53 381K
20260425T00Z_MSC_RDPS_DewPointDepression_IsbL-0600_RLatLon0.09_PT032H.grib2 2026-04-25 02:53 390K
20260425T00Z_MSC_RDPS_DewPointDepression_IsbL-0650_RLatLon0.09_PT032H.grib2 2026-04-25 02:53 392K
20260425T00Z_MSC_RDPS_DewPointDepression_IsbL-0700_RLatLon0.09_PT032H.grib2 2026-04-25 02:53 402K
20260425T00Z_MSC_RDPS_DewPointDepression_IsbL-0750_RLatLon0.09_PT032H.grib2 2026-04-25 02:53 422K
20260425T00Z_MSC_RDPS_DewPointDepression_IsbL-0800_RLatLon0.09_PT032H.grib2 2026-04-25 02:53 449K
20260425T00Z_MSC_RDPS_DewPointDepression_IsbL-0850_RLatLon0.09_PT032H.grib2 2026-04-25 02:53 474K
20260425T00Z_MSC_RDPS_DewPointDepression_IsbL-0875_RLatLon0.09_PT032H.grib2 2026-04-25 02:53 474K
20260425T00Z_MSC_RDPS_DewPointDepression_IsbL-0900_RLatLon0.09_PT032H.grib2 2026-04-25 02:53 464K
20260425T00Z_MSC_RDPS_DewPointDepression_IsbL-0925_RLatLon0.09_PT032H.grib2 2026-04-25 02:53 453K
20260425T00Z_MSC_RDPS_DewPointDepression_IsbL-0950_RLatLon0.09_PT032H.grib2 2026-04-25 02:53 442K
20260425T00Z_MSC_RDPS_DewPointDepression_IsbL-0970_RLatLon0.09_PT032H.grib2 2026-04-25 02:53 432K
20260425T00Z_MSC_RDPS_DewPointDepression_IsbL-0985_RLatLon0.09_PT032H.grib2 2026-04-25 02:53 426K
20260425T00Z_MSC_RDPS_DewPointDepression_IsbL-1000_RLatLon0.09_PT032H.grib2 2026-04-25 02:53 421K
20260425T00Z_MSC_RDPS_DewPointDepression_IsbL-1015_RLatLon0.09_PT032H.grib2 2026-04-25 02:53 413K
20260425T00Z_MSC_RDPS_DewPoint_AGL-2m_RLatLon0.09_PT032H.grib2 2026-04-25 02:53 307K
20260425T00Z_MSC_RDPS_DownwardLongwaveRadiationFlux-Accum_Sfc_RLatLon0.09_PT032H.grib2 2026-04-25 02:53 487K
20260425T00Z_MSC_RDPS_DownwardShortwaveRadiationFlux-Accum_NTAtm_RLatLon0.09_PT032H.grib2 2026-04-25 02:53 128K
20260425T00Z_MSC_RDPS_DownwardShortwaveRadiationFlux-Accum_Sfc_RLatLon0.09_PT032H.grib2 2026-04-25 02:53 522K
20260425T00Z_MSC_RDPS_FreezingRain-Accum1h_Sfc_RLatLon0.09_PT032H.grib2 2026-04-25 02:53 56K
20260425T00Z_MSC_RDPS_FreezingRain-Accum_Sfc_RLatLon0.09_PT032H.grib2 2026-04-25 02:53 142K
20260425T00Z_MSC_RDPS_GeopotentialHeight_IsbL-0001_RLatLon0.09_PT032H.grib2 2026-04-25 02:53 270K
20260425T00Z_MSC_RDPS_GeopotentialHeight_IsbL-0005_RLatLon0.09_PT032H.grib2 2026-04-25 02:53 340K
20260425T00Z_MSC_RDPS_GeopotentialHeight_IsbL-0010_RLatLon0.09_PT032H.grib2 2026-04-25 02:53 310K
20260425T00Z_MSC_RDPS_GeopotentialHeight_IsbL-0020_RLatLon0.09_PT032H.grib2 2026-04-25 02:53 310K
20260425T00Z_MSC_RDPS_GeopotentialHeight_IsbL-0030_RLatLon0.09_PT032H.grib2 2026-04-25 02:53 410K
20260425T00Z_MSC_RDPS_GeopotentialHeight_IsbL-0050_RLatLon0.09_PT032H.grib2 2026-04-25 02:53 314K
20260425T00Z_MSC_RDPS_GeopotentialHeight_IsbL-0100_RLatLon0.09_PT032H.grib2 2026-04-25 02:53 289K
20260425T00Z_MSC_RDPS_GeopotentialHeight_IsbL-0150_RLatLon0.09_PT032H.grib2 2026-04-25 02:53 230K
20260425T00Z_MSC_RDPS_GeopotentialHeight_IsbL-0175_RLatLon0.09_PT032H.grib2 2026-04-25 02:53 232K
20260425T00Z_MSC_RDPS_GeopotentialHeight_IsbL-0200_RLatLon0.09_PT032H.grib2 2026-04-25 02:53 235K
20260425T00Z_MSC_RDPS_GeopotentialHeight_IsbL-0225_RLatLon0.09_PT032H.grib2 2026-04-25 02:53 268K
20260425T00Z_MSC_RDPS_GeopotentialHeight_IsbL-0250_RLatLon0.09_PT032H.grib2 2026-04-25 02:53 269K
20260425T00Z_MSC_RDPS_GeopotentialHeight_IsbL-0275_RLatLon0.09_PT032H.grib2 2026-04-25 02:53 237K
20260425T00Z_MSC_RDPS_GeopotentialHeight_IsbL-0300_RLatLon0.09_PT032H.grib2 2026-04-25 02:53 236K
20260425T00Z_MSC_RDPS_GeopotentialHeight_IsbL-0350_RLatLon0.09_PT032H.grib2 2026-04-25 02:53 232K
20260425T00Z_MSC_RDPS_GeopotentialHeight_IsbL-0400_RLatLon0.09_PT032H.grib2 2026-04-25 02:53 229K
20260425T00Z_MSC_RDPS_GeopotentialHeight_IsbL-0450_RLatLon0.09_PT032H.grib2 2026-04-25 02:53 298K
20260425T00Z_MSC_RDPS_GeopotentialHeight_IsbL-0500_RLatLon0.09_PT032H.grib2 2026-04-25 02:53 292K
20260425T00Z_MSC_RDPS_GeopotentialHeight_IsbL-0550_RLatLon0.09_PT032H.grib2 2026-04-25 02:53 288K
20260425T00Z_MSC_RDPS_GeopotentialHeight_IsbL-0600_RLatLon0.09_PT032H.grib2 2026-04-25 02:53 284K
20260425T00Z_MSC_RDPS_GeopotentialHeight_IsbL-0650_RLatLon0.09_PT032H.grib2 2026-04-25 02:53 282K
20260425T00Z_MSC_RDPS_GeopotentialHeight_IsbL-0700_RLatLon0.09_PT032H.grib2 2026-04-25 02:53 280K
20260425T00Z_MSC_RDPS_GeopotentialHeight_IsbL-0750_RLatLon0.09_PT032H.grib2 2026-04-25 02:53 281K
20260425T00Z_MSC_RDPS_GeopotentialHeight_IsbL-0800_RLatLon0.09_PT032H.grib2 2026-04-25 02:53 287K
20260425T00Z_MSC_RDPS_GeopotentialHeight_IsbL-0850_RLatLon0.09_PT032H.grib2 2026-04-25 02:53 266K
20260425T00Z_MSC_RDPS_GeopotentialHeight_IsbL-0875_RLatLon0.09_PT032H.grib2 2026-04-25 02:53 269K
20260425T00Z_MSC_RDPS_GeopotentialHeight_IsbL-0900_RLatLon0.09_PT032H.grib2 2026-04-25 02:53 272K
20260425T00Z_MSC_RDPS_GeopotentialHeight_IsbL-0925_RLatLon0.09_PT032H.grib2 2026-04-25 02:53 301K
20260425T00Z_MSC_RDPS_GeopotentialHeight_IsbL-0950_RLatLon0.09_PT032H.grib2 2026-04-25 02:53 303K
20260425T00Z_MSC_RDPS_GeopotentialHeight_IsbL-0970_RLatLon0.09_PT032H.grib2 2026-04-25 02:53 308K
20260425T00Z_MSC_RDPS_GeopotentialHeight_IsbL-0985_RLatLon0.09_PT032H.grib2 2026-04-25 02:53 314K
20260425T00Z_MSC_RDPS_GeopotentialHeight_IsbL-1000_RLatLon0.09_PT032H.grib2 2026-04-25 02:53 322K
20260425T00Z_MSC_RDPS_GeopotentialHeight_IsbL-1015_RLatLon0.09_PT032H.grib2 2026-04-25 02:53 333K
20260425T00Z_MSC_RDPS_Humidex_Sfc_RLatLon0.09_PT032H.grib2 2026-04-25 02:53 2.4M
20260425T00Z_MSC_RDPS_IcePellets-Accum1h_Sfc_RLatLon0.09_PT032H.grib2 2026-04-25 02:53 20K
20260425T00Z_MSC_RDPS_IcePellets-Accum_Sfc_RLatLon0.09_PT032H.grib2 2026-04-25 02:53 59K
20260425T00Z_MSC_RDPS_KIndex_Sfc_RLatLon0.09_PT032H.grib2 2026-04-25 02:53 2.4M
20260425T00Z_MSC_RDPS_LatentHeatNetFlux_Sfc_RLatLon0.09_PT032H.grib2 2026-04-25 02:53 400K
20260425T00Z_MSC_RDPS_LiftedIndex-MU-VT_IsbL-0500_RLatLon0.09_PT032H.grib2 2026-04-25 02:53 2.4M
20260425T00Z_MSC_RDPS_NetLongwaveRadiationFlux-Accum_Sfc_RLatLon0.09_PT032H.grib2 2026-04-25 02:53 624K
20260425T00Z_MSC_RDPS_NetShortwaveRadiationFlux-Accum_Sfc_RLatLon0.09_PT032H.grib2 2026-04-25 02:53 661K
20260425T00Z_MSC_RDPS_PlanetaryBoundaryLayerHeight_Sfc_RLatLon0.09_PT032H.grib2 2026-04-25 02:53 1.1M
20260425T00Z_MSC_RDPS_Precip-Accum1h_Sfc_RLatLon0.09_PT032H.grib2 2026-04-25 02:53 1.3M
20260425T00Z_MSC_RDPS_Precip-Accum_Sfc_RLatLon0.09_PT032H.grib2 2026-04-25 02:53 1.9M
20260425T00Z_MSC_RDPS_PrecipRate_Sfc_RLatLon0.09_PT032H.grib2 2026-04-25 02:53 189K
20260425T00Z_MSC_RDPS_PrecipType-Instant_Sfc_RLatLon0.09_PT032H.grib2 2026-04-25 02:53 604K
20260425T00Z_MSC_RDPS_Pressure-Trend3h_Sfc_RLatLon0.09_PT032H.grib2 2026-04-25 02:53 1.2M
20260425T00Z_MSC_RDPS_Pressure_MSL_RLatLon0.09_PT032H.grib2 2026-04-25 02:53 234K
20260425T00Z_MSC_RDPS_Pressure_PVU-1.5_RLatLon0.09_PT032H.grib2 2026-04-25 02:53 2.3M
20260425T00Z_MSC_RDPS_Pressure_PVU-1_RLatLon0.09_PT032H.grib2 2026-04-25 02:53 2.4M
20260425T00Z_MSC_RDPS_Pressure_PVU-2_RLatLon0.09_PT032H.grib2 2026-04-25 02:53 2.4M
20260425T00Z_MSC_RDPS_Pressure_Sfc_RLatLon0.09_PT032H.grib2 2026-04-25 02:53 499K
20260425T00Z_MSC_RDPS_RadiativeTemp_Sfc_RLatLon0.09_PT032H.grib2 2026-04-25 02:53 301K
20260425T00Z_MSC_RDPS_Rain-Accum1h_Sfc_RLatLon0.09_PT032H.grib2 2026-04-25 02:53 618K
20260425T00Z_MSC_RDPS_Rain-Accum_Sfc_RLatLon0.09_PT032H.grib2 2026-04-25 02:53 1.4M
20260425T00Z_MSC_RDPS_RelativeHumidity_AGL-2m_RLatLon0.09_PT032H.grib2 2026-04-25 02:53 1.0M
20260425T00Z_MSC_RDPS_RelativeHumidity_IsbL-0010_RLatLon0.09_PT032H.grib2 2026-04-25 02:53 640K
20260425T00Z_MSC_RDPS_RelativeHumidity_IsbL-0020_RLatLon0.09_PT032H.grib2 2026-04-25 02:53 662K
20260425T00Z_MSC_RDPS_RelativeHumidity_IsbL-0030_RLatLon0.09_PT032H.grib2 2026-04-25 02:53 553K
20260425T00Z_MSC_RDPS_RelativeHumidity_IsbL-0050_RLatLon0.09_PT032H.grib2 2026-04-25 02:53 384K
20260425T00Z_MSC_RDPS_RelativeHumidity_IsbL-0100_RLatLon0.09_PT032H.grib2 2026-04-25 02:53 277K
20260425T00Z_MSC_RDPS_RelativeHumidity_IsbL-0150_RLatLon0.09_PT032H.grib2 2026-04-25 02:53 412K
20260425T00Z_MSC_RDPS_RelativeHumidity_IsbL-0175_RLatLon0.09_PT032H.grib2 2026-04-25 02:53 485K
20260425T00Z_MSC_RDPS_RelativeHumidity_IsbL-0200_RLatLon0.09_PT032H.grib2 2026-04-25 02:53 558K
20260425T00Z_MSC_RDPS_RelativeHumidity_IsbL-0225_RLatLon0.09_PT032H.grib2 2026-04-25 02:53 629K
20260425T00Z_MSC_RDPS_RelativeHumidity_IsbL-0250_RLatLon0.09_PT032H.grib2 2026-04-25 02:53 705K
20260425T00Z_MSC_RDPS_RelativeHumidity_IsbL-0275_RLatLon0.09_PT032H.grib2 2026-04-25 02:53 733K
20260425T00Z_MSC_RDPS_RelativeHumidity_IsbL-0300_RLatLon0.09_PT032H.grib2 2026-04-25 02:53 777K
20260425T00Z_MSC_RDPS_RelativeHumidity_IsbL-0350_RLatLon0.09_PT032H.grib2 2026-04-25 02:53 801K
20260425T00Z_MSC_RDPS_RelativeHumidity_IsbL-0400_RLatLon0.09_PT032H.grib2 2026-04-25 02:53 814K
20260425T00Z_MSC_RDPS_RelativeHumidity_IsbL-0450_RLatLon0.09_PT032H.grib2 2026-04-25 02:53 818K
20260425T00Z_MSC_RDPS_RelativeHumidity_IsbL-0500_RLatLon0.09_PT032H.grib2 2026-04-25 02:53 830K
20260425T00Z_MSC_RDPS_RelativeHumidity_IsbL-0550_RLatLon0.09_PT032H.grib2 2026-04-25 02:53 853K
20260425T00Z_MSC_RDPS_RelativeHumidity_IsbL-0600_RLatLon0.09_PT032H.grib2 2026-04-25 02:53 875K
20260425T00Z_MSC_RDPS_RelativeHumidity_IsbL-0650_RLatLon0.09_PT032H.grib2 2026-04-25 02:53 890K
20260425T00Z_MSC_RDPS_RelativeHumidity_IsbL-0700_RLatLon0.09_PT032H.grib2 2026-04-25 02:53 910K
20260425T00Z_MSC_RDPS_RelativeHumidity_IsbL-0750_RLatLon0.09_PT032H.grib2 2026-04-25 02:53 951K
20260425T00Z_MSC_RDPS_RelativeHumidity_IsbL-0800_RLatLon0.09_PT032H.grib2 2026-04-25 02:53 1.0M
20260425T00Z_MSC_RDPS_RelativeHumidity_IsbL-0850_RLatLon0.09_PT032H.grib2 2026-04-25 02:53 1.0M
20260425T00Z_MSC_RDPS_RelativeHumidity_IsbL-0875_RLatLon0.09_PT032H.grib2 2026-04-25 02:53 1.1M
20260425T00Z_MSC_RDPS_RelativeHumidity_IsbL-0900_RLatLon0.09_PT032H.grib2 2026-04-25 02:53 1.1M
20260425T00Z_MSC_RDPS_RelativeHumidity_IsbL-0925_RLatLon0.09_PT032H.grib2 2026-04-25 02:53 1.1M
20260425T00Z_MSC_RDPS_RelativeHumidity_IsbL-0950_RLatLon0.09_PT032H.grib2 2026-04-25 02:53 1.1M
20260425T00Z_MSC_RDPS_RelativeHumidity_IsbL-0970_RLatLon0.09_PT032H.grib2 2026-04-25 02:53 1.1M
20260425T00Z_MSC_RDPS_RelativeHumidity_IsbL-0985_RLatLon0.09_PT032H.grib2 2026-04-25 02:53 1.0M
20260425T00Z_MSC_RDPS_RelativeHumidity_IsbL-1000_RLatLon0.09_PT032H.grib2 2026-04-25 02:53 1.0M
20260425T00Z_MSC_RDPS_RelativeHumidity_IsbL-1015_RLatLon0.09_PT032H.grib2 2026-04-25 02:53 1.0M
20260425T00Z_MSC_RDPS_Runoff-Accum_Sfc_RLatLon0.09_PT032H.grib2 2026-04-25 02:53 74K
20260425T00Z_MSC_RDPS_SWEATIndex_Sfc_RLatLon0.09_PT032H.grib2 2026-04-25 02:53 2.4M
20260425T00Z_MSC_RDPS_SeeingIndex_EAtm_RLatLon0.09_PT032H.grib2 2026-04-25 02:53 1.0M
20260425T00Z_MSC_RDPS_SensibleHeatNetFlux_Sfc_RLatLon0.09_PT032H.grib2 2026-04-25 02:53 287K
20260425T00Z_MSC_RDPS_ShowalterIndex_IsbL-0500_RLatLon0.09_PT032H.grib2 2026-04-25 02:53 2.6M
20260425T00Z_MSC_RDPS_SkyTransparencyIndex_EAtm_RLatLon0.09_PT032H.grib2 2026-04-25 02:53 710K
20260425T00Z_MSC_RDPS_Snow-Accum1h_Sfc_RLatLon0.09_PT032H.grib2 2026-04-25 02:53 514K
20260425T00Z_MSC_RDPS_Snow-Accum_Sfc_RLatLon0.09_PT032H.grib2 2026-04-25 02:53 830K
20260425T00Z_MSC_RDPS_SnowDensity_Sfc_RLatLon0.09_PT032H.grib2 2026-04-25 02:53 182K
20260425T00Z_MSC_RDPS_SnowDepth_Sfc_RLatLon0.09_PT032H.grib2 2026-04-25 02:53 731K
20260425T00Z_MSC_RDPS_SoilTemp_DBS-0to10cm_RLatLon0.09_PT032H.grib2 2026-04-25 02:53 227K
20260425T00Z_MSC_RDPS_SoilTemp_Sfc_RLatLon0.09_PT032H.grib2 2026-04-25 02:53 263K
20260425T00Z_MSC_RDPS_SoilVolumetricIceContent_Sfc_RLatLon0.09_PT032H.grib2 2026-04-25 02:53 169K
20260425T00Z_MSC_RDPS_SoilVolumetricWaterContent_DBS-0to10cm_RLatLon0.09_PT032H.grib2 2026-04-25 02:53 256K
20260425T00Z_MSC_RDPS_SoilVolumetricWaterContent_DBS-0to1cm_RLatLon0.09_PT032H.grib2 2026-04-25 02:53 341K
20260425T00Z_MSC_RDPS_SpecificHumidity_AGL-120m_RLatLon0.09_PT032H.grib2 2026-04-25 02:53 481K
20260425T00Z_MSC_RDPS_SpecificHumidity_AGL-2m_RLatLon0.09_PT032H.grib2 2026-04-25 02:53 646K
20260425T00Z_MSC_RDPS_SpecificHumidity_AGL-40m_RLatLon0.09_PT032H.grib2 2026-04-25 02:53 486K
20260425T00Z_MSC_RDPS_SpecificHumidity_AGL-80m_RLatLon0.09_PT032H.grib2 2026-04-25 02:53 482K
20260425T00Z_MSC_RDPS_SpecificHumidity_IsbL-0001_RLatLon0.09_PT032H.grib2 2026-04-25 02:53 337K
20260425T00Z_MSC_RDPS_SpecificHumidity_IsbL-0005_RLatLon0.09_PT032H.grib2 2026-04-25 02:53 357K
20260425T00Z_MSC_RDPS_SpecificHumidity_IsbL-0010_RLatLon0.09_PT032H.grib2 2026-04-25 02:53 400K
20260425T00Z_MSC_RDPS_SpecificHumidity_IsbL-0020_RLatLon0.09_PT032H.grib2 2026-04-25 02:53 390K
20260425T00Z_MSC_RDPS_SpecificHumidity_IsbL-0030_RLatLon0.09_PT032H.grib2 2026-04-25 02:53 481K
20260425T00Z_MSC_RDPS_SpecificHumidity_IsbL-0050_RLatLon0.09_PT032H.grib2 2026-04-25 02:53 483K
20260425T00Z_MSC_RDPS_SpecificHumidity_IsbL-0100_RLatLon0.09_PT032H.grib2 2026-04-25 02:53 452K
20260425T00Z_MSC_RDPS_SpecificHumidity_IsbL-0150_RLatLon0.09_PT032H.grib2 2026-04-25 02:53 452K
20260425T00Z_MSC_RDPS_SpecificHumidity_IsbL-0175_RLatLon0.09_PT032H.grib2 2026-04-25 02:53 549K
20260425T00Z_MSC_RDPS_SpecificHumidity_IsbL-0200_RLatLon0.09_PT032H.grib2 2026-04-25 02:53 450K
20260425T00Z_MSC_RDPS_SpecificHumidity_IsbL-0225_RLatLon0.09_PT032H.grib2 2026-04-25 02:53 454K
20260425T00Z_MSC_RDPS_SpecificHumidity_IsbL-0250_RLatLon0.09_PT032H.grib2 2026-04-25 02:53 567K
20260425T00Z_MSC_RDPS_SpecificHumidity_IsbL-0275_RLatLon0.09_PT032H.grib2 2026-04-25 02:53 481K
20260425T00Z_MSC_RDPS_SpecificHumidity_IsbL-0300_RLatLon0.09_PT032H.grib2 2026-04-25 02:53 554K
20260425T00Z_MSC_RDPS_SpecificHumidity_IsbL-0350_RLatLon0.09_PT032H.grib2 2026-04-25 02:53 546K
20260425T00Z_MSC_RDPS_SpecificHumidity_IsbL-0400_RLatLon0.09_PT032H.grib2 2026-04-25 02:53 526K
20260425T00Z_MSC_RDPS_SpecificHumidity_IsbL-0450_RLatLon0.09_PT032H.grib2 2026-04-25 02:53 578K
20260425T00Z_MSC_RDPS_SpecificHumidity_IsbL-0500_RLatLon0.09_PT032H.grib2 2026-04-25 02:53 519K
20260425T00Z_MSC_RDPS_SpecificHumidity_IsbL-0550_RLatLon0.09_PT032H.grib2 2026-04-25 02:53 577K
20260425T00Z_MSC_RDPS_SpecificHumidity_IsbL-0600_RLatLon0.09_PT032H.grib2 2026-04-25 02:53 645K
20260425T00Z_MSC_RDPS_SpecificHumidity_IsbL-0650_RLatLon0.09_PT032H.grib2 2026-04-25 02:53 684K
20260425T00Z_MSC_RDPS_SpecificHumidity_IsbL-0700_RLatLon0.09_PT032H.grib2 2026-04-25 02:53 599K
20260425T00Z_MSC_RDPS_SpecificHumidity_IsbL-0750_RLatLon0.09_PT032H.grib2 2026-04-25 02:53 653K
20260425T00Z_MSC_RDPS_SpecificHumidity_IsbL-0800_RLatLon0.09_PT032H.grib2 2026-04-25 02:53 721K
20260425T00Z_MSC_RDPS_SpecificHumidity_IsbL-0850_RLatLon0.09_PT032H.grib2 2026-04-25 02:53 801K
20260425T00Z_MSC_RDPS_SpecificHumidity_IsbL-0875_RLatLon0.09_PT032H.grib2 2026-04-25 02:53 825K
20260425T00Z_MSC_RDPS_SpecificHumidity_IsbL-0900_RLatLon0.09_PT032H.grib2 2026-04-25 02:53 834K
20260425T00Z_MSC_RDPS_SpecificHumidity_IsbL-0925_RLatLon0.09_PT032H.grib2 2026-04-25 02:53 834K
20260425T00Z_MSC_RDPS_SpecificHumidity_IsbL-0950_RLatLon0.09_PT032H.grib2 2026-04-25 02:53 829K
20260425T00Z_MSC_RDPS_SpecificHumidity_IsbL-0970_RLatLon0.09_PT032H.grib2 2026-04-25 02:53 818K
20260425T00Z_MSC_RDPS_SpecificHumidity_IsbL-0985_RLatLon0.09_PT032H.grib2 2026-04-25 02:53 809K
20260425T00Z_MSC_RDPS_SpecificHumidity_IsbL-1000_RLatLon0.09_PT032H.grib2 2026-04-25 02:53 801K
20260425T00Z_MSC_RDPS_SpecificHumidity_IsbL-1015_RLatLon0.09_PT032H.grib2 2026-04-25 02:53 654K
20260425T00Z_MSC_RDPS_SpecificHumidity_Sfc_RLatLon0.09_PT032H.grib2 2026-04-25 02:53 290K
20260425T00Z_MSC_RDPS_StormRelativeHelicity_EtaL-10000_RLatLon0.09_PT032H.grib2 2026-04-25 02:53 1.1M
20260425T00Z_MSC_RDPS_StormSeverityIndex_EtaL-10000_RLatLon0.09_PT032H.grib2 2026-04-25 02:53 1.2M
20260425T00Z_MSC_RDPS_Thickness_IsbL-0850to0700_RLatLon0.09_PT032H.grib2 2026-04-25 02:53 175K
20260425T00Z_MSC_RDPS_Thickness_IsbL-1000to0500_RLatLon0.09_PT032H.grib2 2026-04-25 02:53 200K
20260425T00Z_MSC_RDPS_Thickness_IsbL-1000to0850_RLatLon0.09_PT032H.grib2 2026-04-25 02:53 183K
20260425T00Z_MSC_RDPS_TotalCloudCover_Sfc_RLatLon0.09_PT032H.grib2 2026-04-25 02:53 688K
20260425T00Z_MSC_RDPS_TotalTotalsIndex_Sfc_RLatLon0.09_PT032H.grib2 2026-04-25 02:53 2.4M
20260425T00Z_MSC_RDPS_UVIndex-ClearSky_Sfc_RLatLon0.09_PT032H.grib2 2026-04-25 02:53 85K
20260425T00Z_MSC_RDPS_UVIndex_Sfc_RLatLon0.09_PT032H.grib2 2026-04-25 02:53 157K
20260425T00Z_MSC_RDPS_UpwardLongwaveRadiationFlux_NTAtm_RLatLon0.09_PT032H.grib2 2026-04-25 02:53 491K
20260425T00Z_MSC_RDPS_UpwardShortwaveRadiationFlux_NTAtm_RLatLon0.09_PT032H.grib2 2026-04-25 02:53 138K
20260425T00Z_MSC_RDPS_VerticalVelocity_IsbL-0250_RLatLon0.09_PT032H.grib2 2026-04-25 02:53 435K
20260425T00Z_MSC_RDPS_VerticalVelocity_IsbL-0500_RLatLon0.09_PT032H.grib2 2026-04-25 02:53 545K
20260425T00Z_MSC_RDPS_VerticalVelocity_IsbL-0700_RLatLon0.09_PT032H.grib2 2026-04-25 02:53 597K
20260425T00Z_MSC_RDPS_VerticalVelocity_IsbL-0850_RLatLon0.09_PT032H.grib2 2026-04-25 02:53 696K
20260425T00Z_MSC_RDPS_VerticalWindShear_EtaL-6500_RLatLon0.09_PT032H.grib2 2026-04-25 02:53 1.2M
20260425T00Z_MSC_RDPS_WindChill_Sfc_RLatLon0.09_PT032H.grib2 2026-04-25 02:53 1.2M
20260425T00Z_MSC_RDPS_WindDir_AGL-10m_RLatLon0.09_PT032H.grib2 2026-04-25 02:53 1.0M
20260425T00Z_MSC_RDPS_WindDir_AGL-120m_RLatLon0.09_PT032H.grib2 2026-04-25 02:53 621K
20260425T00Z_MSC_RDPS_WindDir_AGL-40m_RLatLon0.09_PT032H.grib2 2026-04-25 02:53 655K
20260425T00Z_MSC_RDPS_WindDir_AGL-80m_RLatLon0.09_PT032H.grib2 2026-04-25 02:53 635K
20260425T00Z_MSC_RDPS_WindDir_IsbL-0001_RLatLon0.09_PT032H.grib2 2026-04-25 02:53 285K
20260425T00Z_MSC_RDPS_WindDir_IsbL-0005_RLatLon0.09_PT032H.grib2 2026-04-25 02:53 369K
20260425T00Z_MSC_RDPS_WindDir_IsbL-0010_RLatLon0.09_PT032H.grib2 2026-04-25 02:53 392K
20260425T00Z_MSC_RDPS_WindDir_IsbL-0020_RLatLon0.09_PT032H.grib2 2026-04-25 02:53 421K
20260425T00Z_MSC_RDPS_WindDir_IsbL-0030_RLatLon0.09_PT032H.grib2 2026-04-25 02:53 427K
20260425T00Z_MSC_RDPS_WindDir_IsbL-0050_RLatLon0.09_PT032H.grib2 2026-04-25 02:53 448K
20260425T00Z_MSC_RDPS_WindDir_IsbL-0100_RLatLon0.09_PT032H.grib2 2026-04-25 02:53 432K
20260425T00Z_MSC_RDPS_WindDir_IsbL-0150_RLatLon0.09_PT032H.grib2 2026-04-25 02:53 422K
20260425T00Z_MSC_RDPS_WindDir_IsbL-0175_RLatLon0.09_PT032H.grib2 2026-04-25 02:53 439K
20260425T00Z_MSC_RDPS_WindDir_IsbL-0200_RLatLon0.09_PT032H.grib2 2026-04-25 02:53 445K
20260425T00Z_MSC_RDPS_WindDir_IsbL-0225_RLatLon0.09_PT032H.grib2 2026-04-25 02:53 445K
20260425T00Z_MSC_RDPS_WindDir_IsbL-0250_RLatLon0.09_PT032H.grib2 2026-04-25 02:53 446K
20260425T00Z_MSC_RDPS_WindDir_IsbL-0275_RLatLon0.09_PT032H.grib2 2026-04-25 02:53 471K
20260425T00Z_MSC_RDPS_WindDir_IsbL-0300_RLatLon0.09_PT032H.grib2 2026-04-25 02:53 476K
20260425T00Z_MSC_RDPS_WindDir_IsbL-0350_RLatLon0.09_PT032H.grib2 2026-04-25 02:53 503K
20260425T00Z_MSC_RDPS_WindDir_IsbL-0400_RLatLon0.09_PT032H.grib2 2026-04-25 02:53 514K
20260425T00Z_MSC_RDPS_WindDir_IsbL-0450_RLatLon0.09_PT032H.grib2 2026-04-25 02:53 529K
20260425T00Z_MSC_RDPS_WindDir_IsbL-0500_RLatLon0.09_PT032H.grib2 2026-04-25 02:53 544K
20260425T00Z_MSC_RDPS_WindDir_IsbL-0550_RLatLon0.09_PT032H.grib2 2026-04-25 02:53 565K
20260425T00Z_MSC_RDPS_WindDir_IsbL-0600_RLatLon0.09_PT032H.grib2 2026-04-25 02:53 596K
20260425T00Z_MSC_RDPS_WindDir_IsbL-0650_RLatLon0.09_PT032H.grib2 2026-04-25 02:53 643K
20260425T00Z_MSC_RDPS_WindDir_IsbL-0700_RLatLon0.09_PT032H.grib2 2026-04-25 02:53 688K
20260425T00Z_MSC_RDPS_WindDir_IsbL-0750_RLatLon0.09_PT032H.grib2 2026-04-25 02:53 746K
20260425T00Z_MSC_RDPS_WindDir_IsbL-0800_RLatLon0.09_PT032H.grib2 2026-04-25 02:53 818K
20260425T00Z_MSC_RDPS_WindDir_IsbL-0850_RLatLon0.09_PT032H.grib2 2026-04-25 02:53 892K
20260425T00Z_MSC_RDPS_WindDir_IsbL-0875_RLatLon0.09_PT032H.grib2 2026-04-25 02:53 915K
20260425T00Z_MSC_RDPS_WindDir_IsbL-0900_RLatLon0.09_PT032H.grib2 2026-04-25 02:53 928K
20260425T00Z_MSC_RDPS_WindDir_IsbL-0925_RLatLon0.09_PT032H.grib2 2026-04-25 02:53 930K
20260425T00Z_MSC_RDPS_WindDir_IsbL-0950_RLatLon0.09_PT032H.grib2 2026-04-25 02:53 930K
20260425T00Z_MSC_RDPS_WindDir_IsbL-0970_RLatLon0.09_PT032H.grib2 2026-04-25 02:53 937K
20260425T00Z_MSC_RDPS_WindDir_IsbL-0985_RLatLon0.09_PT032H.grib2 2026-04-25 02:53 950K
20260425T00Z_MSC_RDPS_WindDir_IsbL-1000_RLatLon0.09_PT032H.grib2 2026-04-25 02:53 966K
20260425T00Z_MSC_RDPS_WindDir_IsbL-1015_RLatLon0.09_PT032H.grib2 2026-04-25 02:53 1.0M
20260425T00Z_MSC_RDPS_WindGust-Max_AGL-10m_RLatLon0.09_PT032H.grib2 2026-04-25 02:53 1.0M
20260425T00Z_MSC_RDPS_WindGust-Min_AGL-10m_RLatLon0.09_PT032H.grib2 2026-04-25 02:53 969K
20260425T00Z_MSC_RDPS_WindGust_AGL-10m_RLatLon0.09_PT032H.grib2 2026-04-25 02:53 1.0M
20260425T00Z_MSC_RDPS_WindSpeed_AGL-10m_RLatLon0.09_PT032H.grib2 2026-04-25 02:53 851K
20260425T00Z_MSC_RDPS_WindSpeed_AGL-120m_RLatLon0.09_PT032H.grib2 2026-04-25 02:53 556K
20260425T00Z_MSC_RDPS_WindSpeed_AGL-40m_RLatLon0.09_PT032H.grib2 2026-04-25 02:53 549K
20260425T00Z_MSC_RDPS_WindSpeed_AGL-80m_RLatLon0.09_PT032H.grib2 2026-04-25 02:53 546K
20260425T00Z_MSC_RDPS_WindSpeed_IsbL-0001_RLatLon0.09_PT032H.grib2 2026-04-25 02:53 251K
20260425T00Z_MSC_RDPS_WindSpeed_IsbL-0005_RLatLon0.09_PT032H.grib2 2026-04-25 02:53 301K
20260425T00Z_MSC_RDPS_WindSpeed_IsbL-0010_RLatLon0.09_PT032H.grib2 2026-04-25 02:53 318K
20260425T00Z_MSC_RDPS_WindSpeed_IsbL-0020_RLatLon0.09_PT032H.grib2 2026-04-25 02:53 338K
20260425T00Z_MSC_RDPS_WindSpeed_IsbL-0030_RLatLon0.09_PT032H.grib2 2026-04-25 02:53 337K
20260425T00Z_MSC_RDPS_WindSpeed_IsbL-0050_RLatLon0.09_PT032H.grib2 2026-04-25 02:53 480K
20260425T00Z_MSC_RDPS_WindSpeed_IsbL-0100_RLatLon0.09_PT032H.grib2 2026-04-25 02:53 441K
20260425T00Z_MSC_RDPS_WindSpeed_IsbL-0150_RLatLon0.09_PT032H.grib2 2026-04-25 02:53 381K
20260425T00Z_MSC_RDPS_WindSpeed_IsbL-0175_RLatLon0.09_PT032H.grib2 2026-04-25 02:53 409K
20260425T00Z_MSC_RDPS_WindSpeed_IsbL-0200_RLatLon0.09_PT032H.grib2 2026-04-25 02:53 446K
20260425T00Z_MSC_RDPS_WindSpeed_IsbL-0225_RLatLon0.09_PT032H.grib2 2026-04-25 02:53 452K
20260425T00Z_MSC_RDPS_WindSpeed_IsbL-0250_RLatLon0.09_PT032H.grib2 2026-04-25 02:53 456K
20260425T00Z_MSC_RDPS_WindSpeed_IsbL-0275_RLatLon0.09_PT032H.grib2 2026-04-25 02:53 475K
20260425T00Z_MSC_RDPS_WindSpeed_IsbL-0300_RLatLon0.09_PT032H.grib2 2026-04-25 02:53 472K
20260425T00Z_MSC_RDPS_WindSpeed_IsbL-0350_RLatLon0.09_PT032H.grib2 2026-04-25 02:53 483K
20260425T00Z_MSC_RDPS_WindSpeed_IsbL-0400_RLatLon0.09_PT032H.grib2 2026-04-25 02:53 483K
20260425T00Z_MSC_RDPS_WindSpeed_IsbL-0450_RLatLon0.09_PT032H.grib2 2026-04-25 02:53 465K
20260425T00Z_MSC_RDPS_WindSpeed_IsbL-0500_RLatLon0.09_PT032H.grib2 2026-04-25 02:53 583K
20260425T00Z_MSC_RDPS_WindSpeed_IsbL-0550_RLatLon0.09_PT032H.grib2 2026-04-25 02:53 587K
20260425T00Z_MSC_RDPS_WindSpeed_IsbL-0600_RLatLon0.09_PT032H.grib2 2026-04-25 02:53 599K
20260425T00Z_MSC_RDPS_WindSpeed_IsbL-0650_RLatLon0.09_PT032H.grib2 2026-04-25 02:53 661K
20260425T00Z_MSC_RDPS_WindSpeed_IsbL-0700_RLatLon0.09_PT032H.grib2 2026-04-25 02:53 683K
20260425T00Z_MSC_RDPS_WindSpeed_IsbL-0750_RLatLon0.09_PT032H.grib2 2026-04-25 02:53 714K
20260425T00Z_MSC_RDPS_WindSpeed_IsbL-0800_RLatLon0.09_PT032H.grib2 2026-04-25 02:53 764K
20260425T00Z_MSC_RDPS_WindSpeed_IsbL-0850_RLatLon0.09_PT032H.grib2 2026-04-25 02:53 821K
20260425T00Z_MSC_RDPS_WindSpeed_IsbL-0875_RLatLon0.09_PT032H.grib2 2026-04-25 02:53 842K
20260425T00Z_MSC_RDPS_WindSpeed_IsbL-0900_RLatLon0.09_PT032H.grib2 2026-04-25 02:53 855K
20260425T00Z_MSC_RDPS_WindSpeed_IsbL-0925_RLatLon0.09_PT032H.grib2 2026-04-25 02:53 864K
20260425T00Z_MSC_RDPS_WindSpeed_IsbL-0950_RLatLon0.09_PT032H.grib2 2026-04-25 02:53 865K
20260425T00Z_MSC_RDPS_WindSpeed_IsbL-0970_RLatLon0.09_PT032H.grib2 2026-04-25 02:53 862K
20260425T00Z_MSC_RDPS_WindSpeed_IsbL-0985_RLatLon0.09_PT032H.grib2 2026-04-25 02:53 859K
20260425T00Z_MSC_RDPS_WindSpeed_IsbL-1000_RLatLon0.09_PT032H.grib2 2026-04-25 02:53 856K
20260425T00Z_MSC_RDPS_WindSpeed_IsbL-1015_RLatLon0.09_PT032H.grib2 2026-04-25 02:53 848K
20260425T00Z_MSC_RDPS_WindU_AGL-10m_RLatLon0.09_PT032H.grib2 2026-04-25 02:53 436K
20260425T00Z_MSC_RDPS_WindU_AGL-120m_RLatLon0.09_PT032H.grib2 2026-04-25 02:53 422K
20260425T00Z_MSC_RDPS_WindU_AGL-40m_RLatLon0.09_PT032H.grib2 2026-04-25 02:53 426K
20260425T00Z_MSC_RDPS_WindU_AGL-80m_RLatLon0.09_PT032H.grib2 2026-04-25 02:53 424K
20260425T00Z_MSC_RDPS_WindU_IsbL-0001_RLatLon0.09_PT032H.grib2 2026-04-25 02:53 292K
20260425T00Z_MSC_RDPS_WindU_IsbL-0005_RLatLon0.09_PT032H.grib2 2026-04-25 02:53 293K
20260425T00Z_MSC_RDPS_WindU_IsbL-0010_RLatLon0.09_PT032H.grib2 2026-04-25 02:53 352K
20260425T00Z_MSC_RDPS_WindU_IsbL-0020_RLatLon0.09_PT032H.grib2 2026-04-25 02:53 368K
20260425T00Z_MSC_RDPS_WindU_IsbL-0030_RLatLon0.09_PT032H.grib2 2026-04-25 02:53 367K
20260425T00Z_MSC_RDPS_WindU_IsbL-0050_RLatLon0.09_PT032H.grib2 2026-04-25 02:53 366K
20260425T00Z_MSC_RDPS_WindU_IsbL-0100_RLatLon0.09_PT032H.grib2 2026-04-25 02:53 339K
20260425T00Z_MSC_RDPS_WindU_IsbL-0150_RLatLon0.09_PT032H.grib2 2026-04-25 02:53 398K
20260425T00Z_MSC_RDPS_WindU_IsbL-0175_RLatLon0.09_PT032H.grib2 2026-04-25 02:53 424K
20260425T00Z_MSC_RDPS_WindU_IsbL-0200_RLatLon0.09_PT032H.grib2 2026-04-25 02:53 341K
20260425T00Z_MSC_RDPS_WindU_IsbL-0225_RLatLon0.09_PT032H.grib2 2026-04-25 02:53 345K
20260425T00Z_MSC_RDPS_WindU_IsbL-0250_RLatLon0.09_PT032H.grib2 2026-04-25 02:53 346K
20260425T00Z_MSC_RDPS_WindU_IsbL-0275_RLatLon0.09_PT032H.grib2 2026-04-25 02:53 362K
20260425T00Z_MSC_RDPS_WindU_IsbL-0300_RLatLon0.09_PT032H.grib2 2026-04-25 02:53 358K
20260425T00Z_MSC_RDPS_WindU_IsbL-0350_RLatLon0.09_PT032H.grib2 2026-04-25 02:53 368K
20260425T00Z_MSC_RDPS_WindU_IsbL-0400_RLatLon0.09_PT032H.grib2 2026-04-25 02:53 368K
20260425T00Z_MSC_RDPS_WindU_IsbL-0450_RLatLon0.09_PT032H.grib2 2026-04-25 02:53 470K
20260425T00Z_MSC_RDPS_WindU_IsbL-0500_RLatLon0.09_PT032H.grib2 2026-04-25 02:53 471K
20260425T00Z_MSC_RDPS_WindU_IsbL-0550_RLatLon0.09_PT032H.grib2 2026-04-25 02:53 474K
20260425T00Z_MSC_RDPS_WindU_IsbL-0600_RLatLon0.09_PT032H.grib2 2026-04-25 02:53 485K
20260425T00Z_MSC_RDPS_WindU_IsbL-0650_RLatLon0.09_PT032H.grib2 2026-04-25 02:53 502K
20260425T00Z_MSC_RDPS_WindU_IsbL-0700_RLatLon0.09_PT032H.grib2 2026-04-25 02:53 507K
20260425T00Z_MSC_RDPS_WindU_IsbL-0750_RLatLon0.09_PT032H.grib2 2026-04-25 02:53 535K
20260425T00Z_MSC_RDPS_WindU_IsbL-0800_RLatLon0.09_PT032H.grib2 2026-04-25 02:53 579K
20260425T00Z_MSC_RDPS_WindU_IsbL-0850_RLatLon0.09_PT032H.grib2 2026-04-25 02:53 636K
20260425T00Z_MSC_RDPS_WindU_IsbL-0875_RLatLon0.09_PT032H.grib2 2026-04-25 02:53 653K
20260425T00Z_MSC_RDPS_WindU_IsbL-0900_RLatLon0.09_PT032H.grib2 2026-04-25 02:53 663K
20260425T00Z_MSC_RDPS_WindU_IsbL-0925_RLatLon0.09_PT032H.grib2 2026-04-25 02:53 662K
20260425T00Z_MSC_RDPS_WindU_IsbL-0950_RLatLon0.09_PT032H.grib2 2026-04-25 02:53 659K
20260425T00Z_MSC_RDPS_WindU_IsbL-0970_RLatLon0.09_PT032H.grib2 2026-04-25 02:53 657K
20260425T00Z_MSC_RDPS_WindU_IsbL-0985_RLatLon0.09_PT032H.grib2 2026-04-25 02:53 795K
20260425T00Z_MSC_RDPS_WindU_IsbL-1000_RLatLon0.09_PT032H.grib2 2026-04-25 02:53 791K
20260425T00Z_MSC_RDPS_WindU_IsbL-1015_RLatLon0.09_PT032H.grib2 2026-04-25 02:53 787K
20260425T00Z_MSC_RDPS_WindV_AGL-10m_RLatLon0.09_PT032H.grib2 2026-04-25 02:53 433K
20260425T00Z_MSC_RDPS_WindV_AGL-120m_RLatLon0.09_PT032H.grib2 2026-04-25 02:53 421K
20260425T00Z_MSC_RDPS_WindV_AGL-40m_RLatLon0.09_PT032H.grib2 2026-04-25 02:53 424K
20260425T00Z_MSC_RDPS_WindV_AGL-80m_RLatLon0.09_PT032H.grib2 2026-04-25 02:53 423K
20260425T00Z_MSC_RDPS_WindV_IsbL-0001_RLatLon0.09_PT032H.grib2 2026-04-25 02:53 267K
20260425T00Z_MSC_RDPS_WindV_IsbL-0005_RLatLon0.09_PT032H.grib2 2026-04-25 02:53 336K
20260425T00Z_MSC_RDPS_WindV_IsbL-0010_RLatLon0.09_PT032H.grib2 2026-04-25 02:53 312K
20260425T00Z_MSC_RDPS_WindV_IsbL-0020_RLatLon0.09_PT032H.grib2 2026-04-25 02:53 369K
20260425T00Z_MSC_RDPS_WindV_IsbL-0030_RLatLon0.09_PT032H.grib2 2026-04-25 02:53 329K
20260425T00Z_MSC_RDPS_WindV_IsbL-0050_RLatLon0.09_PT032H.grib2 2026-04-25 02:53 361K
20260425T00Z_MSC_RDPS_WindV_IsbL-0100_RLatLon0.09_PT032H.grib2 2026-04-25 02:53 335K
20260425T00Z_MSC_RDPS_WindV_IsbL-0150_RLatLon0.09_PT032H.grib2 2026-04-25 02:53 394K
20260425T00Z_MSC_RDPS_WindV_IsbL-0175_RLatLon0.09_PT032H.grib2 2026-04-25 02:53 421K
20260425T00Z_MSC_RDPS_WindV_IsbL-0200_RLatLon0.09_PT032H.grib2 2026-04-25 02:53 339K
20260425T00Z_MSC_RDPS_WindV_IsbL-0225_RLatLon0.09_PT032H.grib2 2026-04-25 02:53 342K
20260425T00Z_MSC_RDPS_WindV_IsbL-0250_RLatLon0.09_PT032H.grib2 2026-04-25 02:53 343K
20260425T00Z_MSC_RDPS_WindV_IsbL-0275_RLatLon0.09_PT032H.grib2 2026-04-25 02:53 358K
20260425T00Z_MSC_RDPS_WindV_IsbL-0300_RLatLon0.09_PT032H.grib2 2026-04-25 02:53 355K
20260425T00Z_MSC_RDPS_WindV_IsbL-0350_RLatLon0.09_PT032H.grib2 2026-04-25 02:53 387K
20260425T00Z_MSC_RDPS_WindV_IsbL-0400_RLatLon0.09_PT032H.grib2 2026-04-25 02:53 364K
20260425T00Z_MSC_RDPS_WindV_IsbL-0450_RLatLon0.09_PT032H.grib2 2026-04-25 02:53 363K
20260425T00Z_MSC_RDPS_WindV_IsbL-0500_RLatLon0.09_PT032H.grib2 2026-04-25 02:53 467K
20260425T00Z_MSC_RDPS_WindV_IsbL-0550_RLatLon0.09_PT032H.grib2 2026-04-25 02:53 469K
20260425T00Z_MSC_RDPS_WindV_IsbL-0600_RLatLon0.09_PT032H.grib2 2026-04-25 02:53 479K
20260425T00Z_MSC_RDPS_WindV_IsbL-0650_RLatLon0.09_PT032H.grib2 2026-04-25 02:53 496K
20260425T00Z_MSC_RDPS_WindV_IsbL-0700_RLatLon0.09_PT032H.grib2 2026-04-25 02:53 516K
20260425T00Z_MSC_RDPS_WindV_IsbL-0750_RLatLon0.09_PT032H.grib2 2026-04-25 02:53 542K
20260425T00Z_MSC_RDPS_WindV_IsbL-0800_RLatLon0.09_PT032H.grib2 2026-04-25 02:53 572K
20260425T00Z_MSC_RDPS_WindV_IsbL-0850_RLatLon0.09_PT032H.grib2 2026-04-25 02:53 631K
20260425T00Z_MSC_RDPS_WindV_IsbL-0875_RLatLon0.09_PT032H.grib2 2026-04-25 02:53 646K
20260425T00Z_MSC_RDPS_WindV_IsbL-0900_RLatLon0.09_PT032H.grib2 2026-04-25 02:53 656K
20260425T00Z_MSC_RDPS_WindV_IsbL-0925_RLatLon0.09_PT032H.grib2 2026-04-25 02:53 663K
20260425T00Z_MSC_RDPS_WindV_IsbL-0950_RLatLon0.09_PT032H.grib2 2026-04-25 02:53 656K
20260425T00Z_MSC_RDPS_WindV_IsbL-0970_RLatLon0.09_PT032H.grib2 2026-04-25 02:53 655K
20260425T00Z_MSC_RDPS_WindV_IsbL-0985_RLatLon0.09_PT032H.grib2 2026-04-25 02:53 654K
20260425T00Z_MSC_RDPS_WindV_IsbL-1000_RLatLon0.09_PT032H.grib2 2026-04-25 02:53 789K
20260425T00Z_MSC_RDPS_WindV_IsbL-1015_RLatLon0.09_PT032H.grib2 2026-04-25 02:53 782K